Weather History for Albemarle, NC

Change the Weather History Date:

Thursday, January 17, 2013

  Actual Average (KHBI) Record (KHBI)
Temperature  
Mean Temperature 42 °F -  
Max Temperature 51 °F 48 °F 76 °F (1943)
Min Temperature 33 °F 27 °F 1 °F (1977)
Degree Days  
Heating Degree Days 23    
Moisture  
Dew Point 46 °F    
Average Humidity 99    
Maximum Humidity 100    
Minimum Humidity 94    
Precipitation  
Precipitation 1.43 in - - ()
Sea Level Pressure  
Sea Level Pressure 29.99 in    
Wind  
Wind Speed 6 mph (NNE)    
Max Wind Speed 25 mph    
Max Gust Speed 36 mph    
Visibility 5 miles    
Events Rain , Snow    
Averages and records for this station are not official NWS values.
T = Trace of Precipitation, MM = Missing Value Source: NWS Daily Summary

Daily Weather History Graph

Daily Weather History Graph

Search for Another Location

Airport:

Trip Planner

Search our weather history database for the weather conditions in past years. The results will help you decide how hot, cold, wet, or windy it might be!

Date:

Astronomy

Jan. 17, 2013 Rise Set
Actual Time 7:28 AM EST 5:33 PM EST
Civil Twilight 7:00 AM EST 6:01 PM EST
Nautical Twilight 6:29 AM EST 6:32 PM EST
Astronomical Twilight 5:59 AM EST 7:02 PM EST
Moon 10:50 AM EST (1/17) No Moon Set
Length of Visible Light 11h 00m
Length of Day
10h 05m
Waxing Crescent, 37% of the Moon is Illuminated
Jan 17
Waxing Crescent
Jan 18
First Quarter
Jan 26
Full
Feb 3
Last Quarter
Feb 10
New

Hourly Weather History & Observations

Time (EST) Temp. Windchill Dew Point Humidity Pressure Visibility Wind Dir Wind Speed Gust Speed Precip Events Conditions
12:15 AM 50.2 °F - 50.2 °F 100% 30.02 in 5.0 mi Calm Calm - N/A   Drizzle
12:35 AM 50.2 °F - 50.2 °F 100% 30.02 in 3.0 mi Calm Calm - 0.02 in Rain Rain
12:55 AM 50.4 °F - 50.4 °F 100% 30.02 in 4.0 mi Calm Calm - 0.04 in Rain Rain
1:15 AM 50.5 °F - 50.5 °F 100% 30.02 in 4.0 mi Calm Calm - 0.01 in   Drizzle
1:35 AM 50.7 °F - 50.7 °F 100% 30.02 in 3.0 mi Calm Calm - 0.02 in   Heavy Drizzle
1:55 AM 50.5 °F - 50.5 °F 100% 30.01 in 3.0 mi Calm Calm - 0.05 in   Heavy Drizzle
2:15 AM 50.9 °F - 50.9 °F 100% 30.00 in 3.0 mi North - - 0.01 in   Heavy Drizzle
2:35 AM 50.9 °F - 50.9 °F 100% 29.99 in 4.0 mi Calm Calm - 0.02 in   Drizzle
2:55 AM 50.7 °F - 50.7 °F 100% 29.99 in 5.0 mi Calm Calm - 0.02 in   Overcast
3:15 AM 50.9 °F - 50.9 °F 100% 30.00 in 5.0 mi Calm Calm - 0.01 in   Heavy Drizzle
3:35 AM 51.1 °F - 51.1 °F 100% 29.99 in 4.0 mi Calm Calm - 0.02 in   Heavy Drizzle
3:55 AM 50.9 °F - 50.9 °F 100% 29.99 in 3.0 mi Calm Calm - 0.03 in   Heavy Drizzle
4:15 AM 51.1 °F - 51.1 °F 100% 29.98 in 4.0 mi Calm Calm - N/A   Drizzle
4:35 AM 51.1 °F - 51.1 °F 100% 29.99 in 7.0 mi Calm Calm - N/A   Drizzle
4:55 AM 51.1 °F - 51.1 °F 100% 29.99 in 4.0 mi NNE 3.5 mph - 0.01 in   Heavy Drizzle
5:15 AM 51.3 °F - 51.3 °F 100% 29.99 in 5.0 mi NNE 3.5 mph - 0.01 in Rain Rain
5:35 AM 51.3 °F - 51.3 °F 100% 29.99 in 5.0 mi NNE 4.6 mph - 0.03 in   Heavy Drizzle
5:55 AM 51.3 °F - 51.3 °F 100% 30.00 in 5.0 mi NNE 5.8 mph - 0.05 in Rain Rain
6:15 AM 51.3 °F - 51.3 °F 100% 30.00 in 5.0 mi NE 5.8 mph - 0.01 in   Heavy Drizzle
6:35 AM 51.1 °F - 51.1 °F 100% 30.00 in 7.0 mi NE 6.9 mph - 0.03 in Rain Rain
6:55 AM 50.9 °F - 50.9 °F 100% 30.00 in 7.0 mi NE 5.8 mph - 0.04 in   Drizzle
7:15 AM 50.9 °F - 50.9 °F 100% 30.01 in 4.0 mi NE 6.9 mph - 0.04 in Rain Rain
7:35 AM 50.9 °F - 50.9 °F 100% 30.02 in 5.0 mi ENE 6.9 mph - 0.09 in Rain Rain
7:55 AM 50.7 °F - 50.7 °F 100% 30.02 in 5.0 mi NE 8.1 mph - 0.12 in Rain Rain
8:15 AM 50.4 °F - 50.4 °F 100% 30.03 in 3.0 mi NE 8.1 mph - 0.07 in Rain Heavy Rain
8:35 AM 50.2 °F - 50.2 °F 100% 30.03 in 4.0 mi ENE 10.4 mph - 0.13 in Rain Heavy Rain
8:55 AM 50.0 °F - 49.6 °F 99% 30.04 in 4.0 mi ENE 16.1 mph 24.2 mph 0.16 in Rain Heavy Rain
9:15 AM 49.6 °F - 49.1 °F 98% 30.04 in 5.0 mi NE 13.8 mph - 0.01 in   Drizzle
9:35 AM 49.6 °F - 49.1 °F 98% 30.05 in 10.0 mi NE 9.2 mph 17.3 mph 0.01 in   Drizzle
9:55 AM 49.1 °F - 48.6 °F 98% 30.05 in 5.0 mi NE 12.7 mph 16.1 mph 0.03 in Rain Rain
10:15 AM 49.1 °F - 48.4 °F 97% 30.03 in 3.0 mi ENE 12.7 mph 19.6 mph 0.01 in Rain Light Rain
10:35 AM 48.2 °F - 48.2 °F 100% 30.03 in 4.0 mi ENE 10.4 mph - N/A Rain Rain
10:55 AM 48.0 °F - 47.1 °F 97% 30.01 in 3.0 mi NE 16.1 mph 23.0 mph 0.05 in Rain Light Rain
11:15 AM 47.7 °F - 46.9 °F 97% 30.01 in 7.0 mi NE 11.5 mph 16.1 mph 0.01 in Rain Light Rain
11:35 AM 47.7 °F - 47.3 °F 99% 30.00 in 7.0 mi North - - 0.02 in   Drizzle
11:55 AM 47.7 °F - 47.3 °F 99% 29.99 in 5.0 mi NNE 11.5 mph - 0.05 in Rain Rain
12:15 PM 47.3 °F - 46.8 °F 98% 29.97 in 10.0 mi NNE 9.2 mph 18.4 mph N/A   Drizzle
12:35 PM 47.1 °F - 46.6 °F 98% 29.96 in 7.0 mi NNE 9.2 mph 16.1 mph 0.03 in Rain Light Rain
12:55 PM 47.3 °F - 46.4 °F 97% 29.94 in 7.0 mi NE 10.4 mph 16.1 mph 0.03 in   Drizzle
1:15 PM 47.3 °F - 46.8 °F 98% 29.94 in 2.5 mi Calm Calm - 0.01 in Rain Light Rain
1:35 PM 46.8 °F - 46.2 °F 98% 29.91 in 7.0 mi NE 15.0 mph 19.6 mph 0.01 in Rain Light Rain
1:55 PM 46.8 °F - 46.4 °F 99% 29.90 in 4.0 mi NE 13.8 mph 19.6 mph 0.01 in Rain Light Rain
2:15 PM 45.9 °F 41.2 °F 45.5 °F 99% 29.90 in 3.0 mi NNE 9.2 mph - N/A Rain Rain
2:35 PM 45.1 °F 39.5 °F 44.8 °F 99% 29.89 in 3.0 mi NNE 11.5 mph 20.7 mph 0.01 in Rain Light Rain
2:55 PM 44.8 °F 38.7 °F 44.6 °F 99% 29.89 in 3.0 mi NNE 12.7 mph - 0.02 in   Drizzle
3:15 PM 44.6 °F 39.7 °F 44.2 °F 99% 29.88 in 3.0 mi NNE 9.2 mph 17.3 mph N/A Rain Rain
3:35 PM 44.6 °F 38.1 °F 44.2 °F 99% 29.87 in 3.0 mi NNE 13.8 mph 19.6 mph N/A   Light Drizzle
3:55 PM 44.6 °F 37.4 °F 44.2 °F 99% 29.87 in 4.0 mi NNE 16.1 mph 24.2 mph N/A   Light Drizzle
4:15 PM 45.0 °F 37.6 °F 44.6 °F 99% 29.86 in 7.0 mi NE 17.3 mph 24.2 mph N/A   Overcast
4:35 PM 44.8 °F 36.6 °F 44.2 °F 98% 29.86 in 5.0 mi NNE 20.7 mph 29.9 mph 0.02 in Rain Rain
4:55 PM 44.8 °F 38.3 °F 44.1 °F 97% 29.86 in 7.0 mi NNE 13.8 mph 27.6 mph 0.04 in Rain Light Rain
5:35 PM 44.2 °F 35.4 °F 43.5 °F 97% 29.85 in 7.0 mi NNE 23.0 mph 34.5 mph 0.10 in Rain Light Rain
5:55 PM 44.2 °F 35.9 °F 43.0 °F 95% 29.85 in 10.0 mi NNE 20.7 mph 33.4 mph 0.11 in Rain Light Rain
6:15 PM 43.7 °F 37.3 °F 42.1 °F 94% 29.96 in 5.0 mi WNW 12.7 mph 27.6 mph 0.03 in   Unknown
6:35 PM 42.8 °F 35.4 °F 41.9 °F 97% 29.97 in 1.5 mi North 15.0 mph 23.0 mph 0.22 in   Overcast
6:55 PM 41.9 °F 33.4 °F 41.0 °F 97% 29.94 in 5.0 mi NNE 18.4 mph 27.6 mph 0.30 in Rain Light Rain
7:15 PM 41.0 °F 31.4 °F 39.7 °F 95% 29.93 in 5.0 mi NNE 21.9 mph 32.2 mph 0.05 in Rain Rain
7:35 PM 40.1 °F 29.5 °F 39.2 °F 97% 29.93 in 7.0 mi NNE 25.3 mph 35.7 mph 0.09 in Rain Light Rain
7:55 PM 39.7 °F 30.3 °F 38.3 °F 95% 29.99 in 10.0 mi NNE 19.6 mph 32.2 mph 0.09 in Rain Light Rain
8:15 PM 38.8 °F 27.8 °F 37.4 °F 95% 29.99 in 5.0 mi NNE 25.3 mph 35.7 mph 0.02 in Rain Light Rain
8:35 PM 37.0 °F 26.4 °F 35.8 °F 95% 30.02 in 5.0 mi NNE 20.7 mph 29.9 mph 0.07 in Snow Light Snow
8:55 PM 35.6 °F 26.2 °F 35.6 °F 100% 30.04 in 10.0 mi NNE 15.0 mph 25.3 mph N/A Rain Light Rain
9:15 PM 34.2 °F 27.5 °F 33.4 °F 97% 30.08 in 7.0 mi North 8.1 mph 17.3 mph 0.02 in Snow Light Snow
9:35 PM 33.6 °F 28.4 °F 33.1 °F 98% 30.11 in 5.0 mi North 5.8 mph - 0.05 in Snow Light Snow
9:55 PM 33.3 °F 28.9 °F 32.9 °F 99% 30.13 in 4.0 mi NNW 4.6 mph - 0.07 in Snow Light Snow
10:15 PM 33.1 °F 28.7 °F 32.9 °F 99% 30.16 in 4.0 mi NW 4.6 mph - 0.01 in Snow Light Snow
10:35 PM 33.3 °F 27.1 °F 33.1 °F 99% 30.19 in 3.0 mi NW 6.9 mph - 0.02 in Snow Light Snow
10:55 PM 33.1 °F 27.7 °F 32.9 °F 99% 30.21 in 3.0 mi NNW 5.8 mph - 0.04 in Snow Light Snow